FDB4KB OMDB-OBBI

Flight info

Callsign FDB4KB
Flight time 0h 47m
Altitude 26000
Route NABIX P699 ORMID M556 ORDIG
Aircraft B738/M-SDE2E3FGHIRWXY/LB1

Departure

Time 2026-04-20 14:28
Airport Dubai International Airport (OMDB)

Arrival

Time 2026-04-20 15:15
Airport Bahrain International Airport (OBBI)
Time Latitude Longitude Altitude Speed Heading
2026-04-20 14:00 25.26464 55.35778 24 ft 0 kts 31°
2026-04-20 14:12 25.26454 55.35771 23 ft 2 kts 31°
2026-04-20 14:12 25.26439 55.35761 23 ft 2 kts 32°
2026-04-20 14:12 25.26430 55.35755 23 ft 2 kts 32°
2026-04-20 14:13 25.26412 55.35741 23 ft 2 kts 37°
2026-04-20 14:13 25.26400 55.35728 24 ft 2 kts 86°
2026-04-20 14:13 25.26406 55.35712 23 ft 2 kts 121°
2026-04-20 14:13 25.26414 55.35697 24 ft 2 kts 122°
2026-04-20 14:14 25.26423 55.35681 23 ft 2 kts 121°
2026-04-20 14:14 25.26429 55.35670 24 ft 1 kts 121°
2026-04-20 14:14 25.26429 55.35669 24 ft 0 kts 121°
2026-04-20 14:20 25.26428 55.35671 24 ft 3 kts 121°
2026-04-20 14:20 25.26406 55.35712 23 ft 9 kts 121°
2026-04-20 14:20 25.26373 55.35771 23 ft 9 kts 122°
2026-04-20 14:20 25.26333 55.35843 21 ft 12 kts 122°
2026-04-20 14:21 25.26302 55.35897 21 ft 13 kts 122°
2026-04-20 14:21 25.26235 55.36017 22 ft 15 kts 122°
2026-04-20 14:21 25.26180 55.36116 22 ft 15 kts 122°
2026-04-20 14:21 25.26126 55.36211 23 ft 16 kts 122°
2026-04-20 14:22 25.26069 55.36313 23 ft 15 kts 122°
2026-04-20 14:22 25.26012 55.36413 21 ft 17 kts 122°
2026-04-20 14:22 25.25949 55.36525 21 ft 17 kts 122°
2026-04-20 14:22 25.25875 55.36593 21 ft 14 kts 187°
2026-04-20 14:23 25.25794 55.36626 21 ft 14 kts 124°
2026-04-20 14:23 25.25737 55.36730 21 ft 19 kts 122°
2026-04-20 14:23 25.25664 55.36859 23 ft 22 kts 121°
2026-04-20 14:23 25.25584 55.37004 21 ft 22 kts 122°
2026-04-20 14:24 25.25503 55.37147 21 ft 22 kts 122°
2026-04-20 14:24 25.25425 55.37284 21 ft 21 kts 121°
2026-04-20 14:24 25.25349 55.37419 23 ft 20 kts 121°
2026-04-20 14:24 25.25274 55.37554 23 ft 22 kts 122°
2026-04-20 14:25 25.25221 55.37649 21 ft 22 kts 122°
2026-04-20 14:25 25.25142 55.37789 22 ft 21 kts 123°
2026-04-20 14:25 25.25041 55.37970 21 ft 20 kts 122°
2026-04-20 14:25 25.24993 55.38056 21 ft 19 kts 122°
2026-04-20 14:26 25.24922 55.38120 21 ft 13 kts 192°
2026-04-20 14:26 25.24847 55.38073 21 ft 12 kts 209°
2026-04-20 14:26 25.24811 55.38014 22 ft 9 kts 294°
2026-04-20 14:26 25.24845 55.37958 21 ft 9 kts 302°
2026-04-20 14:27 25.24945 55.37777 21 ft 61 kts 301°
2026-04-20 14:27 25.25293 55.37150 22 ft 128 kts 301°
2026-04-20 14:27 25.25849 55.36147 132 ft 171 kts 301°
2026-04-20 14:27 25.26511 55.34953 569 ft 194 kts 301°
2026-04-20 14:28 25.27238 55.33637 1105 ft 207 kts 301°
2026-04-20 14:28 25.28001 55.32261 1628 ft 213 kts 302°
2026-04-20 14:28 25.28786 55.30849 2124 ft 218 kts 301°
2026-04-20 14:28 25.29200 55.29249 2724 ft 221 kts 271°
2026-04-20 14:29 25.29082 55.27490 3037 ft 240 kts 265°
2026-04-20 14:29 25.28886 55.25612 3450 ft 250 kts 264°
2026-04-20 14:29 25.28673 55.23672 3849 ft 263 kts 265°
2026-04-20 14:29 25.28448 55.21611 4284 ft 276 kts 265°
2026-04-20 14:30 25.28219 55.19512 5041 ft 278 kts 265°
2026-04-20 14:30 25.27990 55.17386 5904 ft 278 kts 265°
2026-04-20 14:30 25.27762 55.15262 6689 ft 280 kts 265°
2026-04-20 14:30 25.27534 55.13116 7432 ft 282 kts 265°
2026-04-20 14:31 25.27304 55.10950 8175 ft 285 kts 265°
2026-04-20 14:31 25.27073 55.08762 8954 ft 288 kts 265°
2026-04-20 14:31 25.26839 55.06551 9717 ft 291 kts 265°
2026-04-20 14:31 25.26602 55.04303 10260 ft 302 kts 265°
2026-04-20 14:32 25.26351 55.01908 10421 ft 325 kts 265°
2026-04-20 14:32 25.26081 54.99344 10577 ft 347 kts 265°
2026-04-20 14:32 25.25798 54.96662 10804 ft 363 kts 265°
2026-04-20 14:32 25.25501 54.93870 11311 ft 369 kts 265°
2026-04-20 14:33 25.25200 54.91049 11966 ft 370 kts 265°
2026-04-20 14:33 25.24897 54.88216 12624 ft 372 kts 265°
2026-04-20 14:33 25.24593 54.85373 13241 ft 374 kts 265°
2026-04-20 14:33 25.24286 54.82506 13830 ft 377 kts 265°
2026-04-20 14:34 25.23976 54.79612 14360 ft 380 kts 265°
2026-04-20 14:34 25.23664 54.76703 14891 ft 383 kts 265°
2026-04-20 14:34 25.23350 54.73778 15426 ft 385 kts 265°
2026-04-20 14:34 25.23033 54.70833 15966 ft 388 kts 265°
2026-04-20 14:35 25.22712 54.67860 16478 ft 391 kts 264°
2026-04-20 14:35 25.22393 54.64907 16983 ft 394 kts 264°
2026-04-20 14:35 25.22067 54.61897 17498 ft 396 kts 264°
2026-04-20 14:35 25.21738 54.58862 18012 ft 399 kts 264°
2026-04-20 14:36 25.21418 54.55816 18451 ft 401 kts 266°
2026-04-20 14:36 25.21412 54.52738 18901 ft 402 kts 275°
2026-04-20 14:36 25.21845 54.49691 19375 ft 402 kts 284°
2026-04-20 14:36 25.22597 54.46706 19846 ft 403 kts 286°
2026-04-20 14:37 25.23386 54.43722 20284 ft 405 kts 286°
2026-04-20 14:37 25.24171 54.40726 20713 ft 407 kts 285°
2026-04-20 14:37 25.24945 54.37709 21138 ft 409 kts 285°
2026-04-20 14:37 25.25709 54.34679 21562 ft 410 kts 285°
2026-04-20 14:38 25.26470 54.31634 21975 ft 412 kts 285°
2026-04-20 14:38 25.27223 54.28616 22369 ft 413 kts 284°
2026-04-20 14:38 25.27986 54.25545 22763 ft 415 kts 284°
2026-04-20 14:38 25.28751 54.22467 23144 ft 417 kts 284°
2026-04-20 14:39 25.29522 54.19362 23494 ft 419 kts 284°
2026-04-20 14:39 25.30294 54.16252 23803 ft 420 kts 284°
2026-04-20 14:39 25.31068 54.13131 24110 ft 421 kts 284°
2026-04-20 14:39 25.31781 54.10019 24407 ft 423 kts 283°
2026-04-20 14:40 25.32451 54.06851 24705 ft 424 kts 282°
2026-04-20 14:40 25.33109 54.03663 25004 ft 425 kts 282°
2026-04-20 14:40 25.33771 54.00472 25303 ft 426 kts 282°
2026-04-20 14:40 25.34442 53.97269 25594 ft 428 kts 282°
2026-04-20 14:41 25.35122 53.94055 25822 ft 430 kts 283°
2026-04-20 14:41 25.35809 53.90817 25812 ft 434 kts 283°
2026-04-20 14:41 25.36499 53.87567 25824 ft 433 kts 282°
2026-04-20 14:41 25.37185 53.84331 25823 ft 429 kts 282°
2026-04-20 14:42 25.37849 53.81166 25831 ft 428 kts 282°
2026-04-20 14:42 25.38518 53.77954 25835 ft 429 kts 282°
2026-04-20 14:42 25.39188 53.74732 25837 ft 430 kts 282°
2026-04-20 14:42 25.39861 53.71495 25835 ft 431 kts 282°
2026-04-20 14:43 25.40532 53.68266 25829 ft 431 kts 282°
2026-04-20 14:43 25.41206 53.65025 25828 ft 432 kts 282°
2026-04-20 14:43 25.41879 53.61782 25832 ft 432 kts 282°
2026-04-20 14:43 25.42551 53.58544 25828 ft 432 kts 282°
2026-04-20 14:44 25.43224 53.55302 25827 ft 432 kts 282°
2026-04-20 14:44 25.43900 53.52064 25827 ft 432 kts 282°
2026-04-20 14:44 25.44576 53.48823 25825 ft 432 kts 282°
2026-04-20 14:44 25.45239 53.45636 25829 ft 431 kts 282°
2026-04-20 14:45 25.45914 53.42395 25835 ft 431 kts 282°
2026-04-20 14:45 25.46585 53.39162 25832 ft 430 kts 282°
2026-04-20 14:45 25.47254 53.35933 25825 ft 430 kts 282°
2026-04-20 14:45 25.47923 53.32704 25834 ft 429 kts 282°
2026-04-20 14:46 25.48591 53.29477 25835 ft 429 kts 282°
2026-04-20 14:46 25.49256 53.26254 25834 ft 429 kts 282°
2026-04-20 14:46 25.49914 53.23067 25835 ft 429 kts 282°
2026-04-20 14:46 25.50577 53.19848 25836 ft 428 kts 282°
2026-04-20 14:47 25.51238 53.16633 25835 ft 428 kts 282°
2026-04-20 14:47 25.51898 53.13417 25835 ft 428 kts 282°
2026-04-20 14:47 25.52558 53.10198 25836 ft 428 kts 282°
2026-04-20 14:48 25.53874 53.03771 25837 ft 428 kts 282°
2026-04-20 14:48 25.54531 53.00559 25838 ft 427 kts 282°
2026-04-20 14:48 25.55186 52.97351 25834 ft 427 kts 282°
2026-04-20 14:48 25.55840 52.94148 25838 ft 426 kts 282°
2026-04-20 14:49 25.56637 52.90985 25836 ft 427 kts 288°
2026-04-20 14:49 25.57816 52.87999 25836 ft 428 kts 296°
2026-04-20 14:49 25.59243 52.85106 25840 ft 428 kts 297°
2026-04-20 14:49 25.60683 52.82223 25838 ft 428 kts 297°
2026-04-20 14:50 25.62117 52.79337 25838 ft 428 kts 296°
2026-04-20 14:50 25.63543 52.76446 25840 ft 427 kts 296°
2026-04-20 14:50 25.64962 52.73548 25839 ft 427 kts 296°
2026-04-20 14:50 25.66374 52.70651 25841 ft 427 kts 296°
2026-04-20 14:51 25.67784 52.67750 25835 ft 428 kts 296°
2026-04-20 14:51 25.69197 52.64839 25834 ft 428 kts 296°
2026-04-20 14:51 25.70590 52.61967 25841 ft 428 kts 296°
2026-04-20 14:51 25.72001 52.59057 25840 ft 428 kts 296°
2026-04-20 14:52 25.73410 52.56151 25839 ft 428 kts 296°
2026-04-20 14:52 25.74818 52.53244 25841 ft 428 kts 296°
2026-04-20 14:52 25.76226 52.50335 25841 ft 428 kts 296°
2026-04-20 14:52 25.77617 52.47404 25838 ft 427 kts 295°
2026-04-20 14:53 25.78986 52.44477 25839 ft 427 kts 295°
2026-04-20 14:53 25.80349 52.41552 25840 ft 427 kts 295°
2026-04-20 14:53 25.81713 52.38627 25838 ft 426 kts 295°
2026-04-20 14:53 25.83058 52.35749 25837 ft 426 kts 295°
2026-04-20 14:54 25.84422 52.32831 25836 ft 425 kts 295°
2026-04-20 14:54 25.85778 52.29934 25835 ft 424 kts 295°
2026-04-20 14:54 25.87267 52.27100 25832 ft 426 kts 302°
2026-04-20 14:54 25.89117 52.24518 25836 ft 428 kts 309°
2026-04-20 14:55 25.91149 52.22099 25838 ft 429 kts 310°
2026-04-20 14:55 25.93192 52.19687 25836 ft 429 kts 310°
2026-04-20 14:55 25.95232 52.17262 25835 ft 429 kts 310°
2026-04-20 14:55 25.97263 52.14827 25836 ft 429 kts 309°
2026-04-20 14:56 25.99291 52.12379 25836 ft 429 kts 309°
2026-04-20 14:56 26.01308 52.09937 25836 ft 429 kts 309°
2026-04-20 14:56 26.03323 52.07494 25835 ft 429 kts 309°
2026-04-20 14:56 26.05341 52.05049 25832 ft 430 kts 309°
2026-04-20 14:57 26.07367 52.02592 25832 ft 430 kts 309°
2026-04-20 14:57 26.09366 52.00165 25839 ft 431 kts 309°
2026-04-20 14:57 26.11396 51.97701 25840 ft 433 kts 309°
2026-04-20 14:57 26.13433 51.95227 25839 ft 434 kts 309°
2026-04-20 14:58 26.15474 51.92744 25839 ft 435 kts 309°
2026-04-20 14:58 26.17518 51.90258 25838 ft 436 kts 309°
2026-04-20 14:58 26.19567 51.87765 25780 ft 438 kts 309°
2026-04-20 14:58 26.21627 51.85256 25266 ft 438 kts 309°
2026-04-20 14:59 26.23666 51.82766 24810 ft 432 kts 308°
2026-04-20 14:59 26.25465 51.80173 24354 ft 423 kts 301°
2026-04-20 14:59 26.26885 51.77332 23914 ft 418 kts 293°
2026-04-20 14:59 26.28139 51.74412 23463 ft 417 kts 293°
2026-04-20 15:00 26.29398 51.71508 22964 ft 416 kts 294°
2026-04-20 15:00 26.30674 51.68620 22445 ft 414 kts 294°
2026-04-20 15:00 26.31955 51.65745 21933 ft 413 kts 294°
2026-04-20 15:00 26.33230 51.62887 21433 ft 411 kts 294°
2026-04-20 15:01 26.34497 51.60040 20937 ft 409 kts 294°
2026-04-20 15:01 26.35757 51.57207 20453 ft 406 kts 294°
2026-04-20 15:01 26.37008 51.54391 19967 ft 404 kts 294°
2026-04-20 15:01 26.38174 51.51563 19509 ft 400 kts 289°
2026-04-20 15:02 26.39104 51.48661 19051 ft 397 kts 288°
2026-04-20 15:02 26.40000 51.45771 18594 ft 394 kts 288°
2026-04-20 15:02 26.40899 51.42894 18144 ft 391 kts 288°
2026-04-20 15:02 26.41793 51.40067 17637 ft 389 kts 288°
2026-04-20 15:03 26.42690 51.37244 17123 ft 380 kts 288°
2026-04-20 15:03 26.43572 51.34516 16494 ft 368 kts 288°
2026-04-20 15:03 26.44442 51.31866 15876 ft 357 kts 288°
2026-04-20 15:03 26.45261 51.29287 15260 ft 347 kts 283°
2026-04-20 15:04 26.45359 51.26659 14658 ft 338 kts 258°
2026-04-20 15:04 26.44420 51.24292 14102 ft 334 kts 238°
2026-04-20 15:04 26.43036 51.22236 13502 ft 329 kts 234°
2026-04-20 15:04 26.41584 51.20260 12734 ft 327 kts 233°
2026-04-20 15:05 26.40135 51.18315 11996 ft 325 kts 233°
2026-04-20 15:05 26.38693 51.16380 11274 ft 323 kts 232°
2026-04-20 15:05 26.37287 51.14482 10584 ft 320 kts 232°
2026-04-20 15:05 26.35883 51.12569 9884 ft 318 kts 232°
2026-04-20 15:06 26.34494 51.10661 9159 ft 315 kts 232°
2026-04-20 15:06 26.33123 51.08764 8423 ft 313 kts 232°
2026-04-20 15:06 26.31776 51.06886 7862 ft 307 kts 232°
2026-04-20 15:06 26.30461 51.05033 7260 ft 303 kts 232°
2026-04-20 15:07 26.29173 51.03196 6682 ft 299 kts 232°
2026-04-20 15:07 26.27904 51.01368 6101 ft 297 kts 232°
2026-04-20 15:07 26.26665 50.99561 5711 ft 288 kts 232°
2026-04-20 15:07 26.25373 50.97916 5323 ft 279 kts 219°
2026-04-20 15:08 26.23814 50.96677 4968 ft 271 kts 213°
2026-04-20 15:08 26.22286 50.95550 4615 ft 265 kts 213°
2026-04-20 15:08 26.20754 50.94413 4242 ft 263 kts 212°
2026-04-20 15:08 26.19261 50.93285 3904 ft 255 kts 212°
2026-04-20 15:09 26.17827 50.92185 3602 ft 245 kts 212°
2026-04-20 15:09 26.16577 50.90986 3340 ft 234 kts 236°
2026-04-20 15:09 26.16174 50.89300 3116 ft 222 kts 272°
2026-04-20 15:09 26.16225 50.87603 2918 ft 218 kts 273°
2026-04-20 15:10 26.16267 50.85911 2700 ft 218 kts 273°
2026-04-20 15:10 26.16298 50.84224 2595 ft 217 kts 273°
2026-04-20 15:10 26.16358 50.82543 2461 ft 216 kts 284°
2026-04-20 15:10 26.16956 50.81085 2359 ft 207 kts 306°
2026-04-20 15:11 26.17689 50.79702 2234 ft 208 kts 306°
2026-04-20 15:11 26.18444 50.78328 2150 ft 208 kts 307°
2026-04-20 15:11 26.19210 50.76981 2071 ft 197 kts 307°
2026-04-20 15:11 26.19893 50.75788 2019 ft 171 kts 309°
2026-04-20 15:12 26.20505 50.74730 2052 ft 160 kts 310°
2026-04-20 15:12 26.21105 50.73696 1943 ft 158 kts 310°
2026-04-20 15:12 26.21686 50.72692 1751 ft 152 kts 310°
2026-04-20 15:12 26.22248 50.71721 1554 ft 148 kts 311°
2026-04-20 15:13 26.22612 50.71093 1429 ft 144 kts 312°
2026-04-20 15:13 26.23327 50.69857 1179 ft 141 kts 311°
2026-04-20 15:13 26.23870 50.68922 985 ft 147 kts 310°
2026-04-20 15:13 26.24237 50.68288 870 ft 148 kts 310°
2026-04-20 15:14 26.24969 50.67020 608 ft 142 kts 309°
2026-04-20 15:14 26.25321 50.66412 469 ft 139 kts 308°
2026-04-20 15:14 26.25998 50.65238 216 ft 133 kts 304°
2026-04-20 15:14 26.26494 50.64377 25 ft 127 kts 303°
2026-04-20 15:15 26.26898 50.63683 14 ft 78 kts 303°
2026-04-20 15:15 26.27089 50.63352 15 ft 36 kts 303°
2026-04-20 15:15 26.27175 50.63203 15 ft 30 kts 303°
2026-04-20 15:15 26.27243 50.63017 15 ft 14 kts 280°
2026-04-20 15:16 26.27255 50.62908 16 ft 14 kts 272°
2026-04-20 15:16 26.27253 50.62859 17 ft 9 kts 244°
2026-04-20 15:16 26.27200 50.62844 19 ft 9 kts 156°
2026-04-20 15:16 26.27166 50.62879 18 ft 3 kts 126°
2026-04-20 15:17 26.27160 50.62890 17 ft 1 kts 126°
2026-04-20 15:17 26.27156 50.62896 17 ft 1 kts 126°
2026-04-20 15:17 26.27152 50.62902 19 ft 1 kts 126°
2026-04-20 15:17 26.27148 50.62908 18 ft 3 kts 131°
2026-04-20 15:18 26.27105 50.62907 17 ft 7 kts 215°
2026-04-20 15:18 26.27060 50.62881 17 ft 7 kts 192°
2026-04-20 15:18 26.27014 50.62909 17 ft 13 kts 129°
2026-04-20 15:18 26.26953 50.63001 16 ft 15 kts 124°
2026-04-20 15:19 26.26897 50.63096 16 ft 14 kts 124°
2026-04-20 15:19 26.26842 50.63185 16 ft 14 kts 124°
2026-04-20 15:19 26.26789 50.63269 16 ft 13 kts 124°
2026-04-20 15:19 26.26738 50.63352 16 ft 13 kts 124°
2026-04-20 15:20 26.26696 50.63408 16 ft 7 kts 171°
2026-04-20 15:20 26.26653 50.63393 16 ft 7 kts 210°
2026-04-20 15:20 26.26634 50.63380 16 ft 1 kts 212°
2026-04-20 15:20 26.26629 50.63377 17 ft 0 kts 212°